Location: Devore Heights
(34.2372°N, 117.4156°W)
Time: 07:57:07
(UTC+00:00)

Vanguard 1 Rocket - Pass Details

Date: 19 September 2024
Orbit: 650 x 4218 km, 34.3° (Epoch: 09 October)

Event Time Altitude Azimuth Distance (km) Brightness Sun altitude
Rises 07:42:07 0° 195° (SSW) 3,919 - -54.5°
Reaches altitude 10° 07:45:00 10° 181° (S) 3,317 - -54.5°
Maximum altitude 07:51:42 24° 129° (SE) 3,171 - -54.5°
Exits shadow 07:58:35 16° 93° (E) 4,527 10.9 -54.3°
Drops below altitude 10° 08:02:14 10° 83° (E) 5,450 11.4 -54.2°
Sets 08:08:50 0° 73° (ENE) 7,136 12.2 -54.0°
